Miscellaneous Local Product
Issued by NWS North Platte, NE

Home | Current Version | Previous Version | Graphics & Text | Print | Product List | Glossary On
Versions: 1 2 3 4 5 6 7 8 9 10 11 12 13 14 15 16 17 18 19 20 21 22 23 24 25 26 27 28 29 30 31 32 33 34 35 36 37 38 39 40 41 42 43 44 45 46 47 48 49 50
000
AXUS43 KLBF 211710
MISLBF


WESTERN AND NORTH CENTRAL NEBRASKA HOURLY WEATHER ROUNDUP
NATIONAL WEATHER SERVICE NORTH PLATTE NE
1100 AM CST SAT JAN 21 2017

NOTE: "FAIR" INDICATES FEW OR NO CLOUDS BELOW 12,000 FEET WITH NO
SIGNIFICANT WEATHER AND/OR OBSTRUCTIONS TO VISIBILITY.

NOTE: STATIONS NOT REPORTING VARIABLES SUCH AS SKY/WEATHER OR
PRESSURE ARE PROVIDED BY RAWS AND APRS NETWORKS AND ARE NOT UNDER
NATIONAL WEATHER SERVICE QUALITY CONTROL.

...OBSERVATIONS IN AND NEAR THE EASTERN PANHANDLE OF NEBRASKA...

CITY           SKY/WX    TMP DP  RH WIND       PRES   REMARKS
PINE RIDGE     CLOUDY    31  29  92 W8        29.43R WCI  23
CHADRON        SUNNY     29  24  82 W9        29.43R WCI  20
ALLIANCE       SUNNY     32  27  81 W5        29.41R WCI  27
SIDNEY         SUNNY     35  26  69 CALM      29.43R
CRESCENT LAKE    N/A     37  30  75 NW5         N/A  WCI  33
$$

...OBSERVATIONS IN NORTHERN NEBRASKA AND FAR SOUTHERN SOUTH DAKOTA...

CITY           SKY/WX    TMP DP  RH WIND       PRES   REMARKS
WINNER         FAIR      38  31  76 W7        29.39R WCI  33
VALENTINE      SUNNY     41  32  70 W10       29.40R
THEDFORD       SUNNY     39  35  86 W5        29.43R
AINSWORTH      SUNNY     41  34  76 NW9       29.40S
O`NEILL        SUNNY     42  35  76 W10       29.41S
ORD            SUNNY     42  35  76 W6        29.43R
BROKEN BOW     SUNNY     41  36  82 CALM      29.43R
VALENTINE NWR    N/A     38  33  82 NW9         N/A  WCI  31
BUTTE            N/A     35  32  89 W9          N/A  WCI  28
HALSEY           N/A     40  33  77 W6          N/A
SARGENT          N/A     41  36  81 NW5         N/A
CHAMBERS         N/A     43  35  72 N3          N/A
EWING            N/A     40  37  89 W8          N/A  WCI  34
$$

...OBSERVATIONS IN SOUTHWEST NEBRASKA AND FAR NORTHEAST COLORADO...

CITY           SKY/WX    TMP DP  RH WIND       PRES   REMARKS
WRAY           FAIR      37  30  75 CALM      29.43S
HOLYOKE        FAIR      39  30  70 CALM      29.43F
IMPERIAL       SUNNY     39  26  59 NW6       29.44F WCI  35
OGALLALA       SUNNY     34  30  85 W8        29.45S WCI  27
NORTH PLATTE   SUNNY     37  30  75 W8        29.45R WCI  31
MCCOOK         SUNNY     38  32  79 NW7       29.45S WCI  33
LEXINGTON      SUNNY     39  33  81 W6        29.45S WCI  34
STAPLETON        N/A     36  33  90 CALM        N/A
GOTHENBURG       N/A     38  31  74 W3          N/A
CALLAWAY         N/A     39  36  89 N6          N/A  WCI  35
$$

...OBSERVATIONS IN CENTRAL LINCOLN COUNTY AREA...

CITY           SKY/WX    TMP DP  RH WIND       PRES   REMARKS
N.P. AIRPORT   SUNNY     37  30  75 W8        29.45R WCI  31
N.P. DOWNTOWN    N/A     35  32  89 SW3         N/A
N.P. SOUTHEAST   N/A     36  30  78 W3          N/A
N.P. HILLCREST   N/A     33  30  90 W6          N/A  WCI  27
$$

...SOME OBSERVATIONS FROM AROUND THE REGION...

CITY           SKY/WX    TMP DP  RH WIND       PRES   REMARKS
LARAMIE        CLOUDY    17   9  70 CALM      29.35S
CHEYENNE       SUNNY     33  18  53 CALM      29.38R
DENVER         CLOUDY    31  24  75 W6        29.39R WCI  25
AKRON          SUNNY     38  26  62 SE12      29.41R WCI  30
SCOTTSBLUFF    SUNNY     31  25  78 CALM      29.43R
RAPID CITY     SUNNY     38  30  73 W5        29.39R WCI  34
BISMARCK       CLOUDY    29  26  89 W6        29.37R FOG     WCI  23
PIERRE         FOG       27  26  96 W7        29.39R VSB 1/4 WCI  19
SIOUX FALLS    CLOUDY    31  31 100 W10       29.39R WCI  22
OMAHA          PTSUNNY   44  39  82 W5        29.44F
GRAND ISLAND   SUNNY     43  39  86 W8        29.45R
KANSAS CITY    CLOUDY    42  39  89 SW13      29.55R FOG
WICHITA        MOSUNNY   43  39  86 S6        29.54S
OKLAHOMA CITY  CLOUDY    50  37  61 SE5       29.51F
DALLAS         CLOUDY    60  55  83 S7        29.53F
AMARILLO       MOSUNNY   52  38  58 SW16      29.43F
DODGE CITY     SUNNY     43  37  79 SE9       29.46R
HAYS           SUNNY     42  36  79 SE3       29.49R
GOODLAND       SUNNY     38  33  82 CALM      29.42R
$$




USA.gov is the U.S. government's official web portal to all federal, state and local government web resources and services.